Rolla, ND

3:22 PM CDT on August 21, 2017 (GMT -0500)
Rolla

Weather History for K06D - November, 2012

Change the Weather History Date:

Monday, November 12, 2012

  Actual Average (KRUG) Record (KRUG)
Temperature  
Mean Temperature 14 °F -  
Max Temperature 19 °F 33 °F 66 °F (1981)
Min Temperature 8 °F 16 °F -7 °F (1986)
Degree Days  
Heating Degree Days 52    
Moisture  
Dew Point 6 °F    
Average Humidity 78    
Maximum Humidity 100    
Minimum Humidity 46    
Precipitation  
Precipitation 0.38 in - - ()
Sea Level Pressure  
Sea Level Pressure 29.98 in    
Wind  
Wind Speed 18 mph (WNW)    
Max Wind Speed 26 mph    
Max Gust Speed 32 mph    
Visibility 9 miles    
Events Snow    
Averages and records for this station are not official NWS values.
T = Trace of Precipitation, MM = Missing Value Source: NWS Daily Summary

Daily Weather History Graph

Daily Weather History Graph

Search for Another Location

Airport or City:

Trip Planner

Search our weather history database for the weather conditions in past years. The results will help you decide how hot, cold, wet, or windy it might be!

Date:

Astronomy

Nov. 12, 2012 Rise Set
Actual Time 7:43 AM CST 5:01 PM CST
Civil Twilight 7:09 AM CST 5:35 PM CST
Nautical Twilight 6:31 AM CST 6:13 PM CST
Astronomical Twilight 5:54 AM CST 6:50 PM CST
Moon 6:06 AM CST (11/12) 4:09 PM CST (11/12)
Length of Visible Light 10h 25m
Length of Day
9h 17m
Waning Crescent, 2% of the Moon is Illuminated
Nov 12
Waning Crescent
Nov 13
New
Nov 20
First Quarter
Nov 28
Full
Dec 6
Last Quarter

Hourly Weather History & Observations

Time (CST) Temp. Windchill Dew Point Humidity Pressure Visibility Wind Dir Wind Speed Gust Speed Precip Events Conditions
12:15 AM 12.2 °F -7.9 °F 8.6 °F 85% 29.81 in 1.8 mi NW 25.3 mph 28.8 mph 0.06 in Snow Light Snow
12:55 AM 10.4 °F -9.1 °F 8.6 °F 92% 29.82 in 3.0 mi NW 21.9 mph 28.8 mph 0.13 in Snow Light Snow
1:15 AM 10.4 °F -7.7 °F 8.6 °F 92% 29.83 in 2.0 mi NW 18.4 mph - 0.04 in Snow Light Snow
1:35 AM 10.4 °F -8.6 °F 8.6 °F 92% 29.83 in 1.8 mi NW 20.7 mph 29.9 mph 0.11 in Snow Light Snow
1:55 AM 10.4 °F -8.6 °F 6.8 °F 85% 29.84 in 2.5 mi NW 20.7 mph 27.6 mph 0.16 in Snow Light Snow
2:15 AM 10.4 °F -9.5 °F 6.8 °F 85% 29.84 in 3.0 mi NW 23.0 mph 29.9 mph 0.02 in Snow Light Snow
2:35 AM 10.4 °F -8.6 °F 6.8 °F 85% 29.85 in 4.0 mi NW 20.7 mph - 0.05 in Snow Light Snow
2:55 AM 10.4 °F -8.6 °F 6.8 °F 85% 29.86 in 6.0 mi NW 20.7 mph 28.8 mph 0.07 in Snow Light Snow
3:15 AM 8.6 °F -10.5 °F 5.0 °F 85% 29.86 in 10.0 mi NW 19.6 mph - N/A Snow Light Snow
3:35 AM 8.6 °F -11.9 °F 5.0 °F 85% 29.87 in 10.0 mi NW 23.0 mph - N/A   Mostly Cloudy
3:55 AM 8.6 °F -10.5 °F 5.0 °F 85% 29.87 in 10.0 mi NW 19.6 mph 25.3 mph N/A   Scattered Clouds
4:15 AM 8.6 °F -10.5 °F 5.0 °F 85% 29.87 in 10.0 mi NW 19.6 mph 25.3 mph N/A   Clear
4:35 AM 8.6 °F -11.4 °F 5.0 °F 85% 29.88 in 9.0 mi NW 21.9 mph - N/A   Clear
4:55 AM 8.6 °F -11.4 °F 5.0 °F 85% 29.89 in 10.0 mi NW 21.9 mph - N/A   Clear
5:15 AM 8.6 °F -13.1 °F 5.0 °F 85% 29.90 in 5.0 mi NW 26.5 mph 32.2 mph N/A Snow Light Snow
5:35 AM 8.6 °F -11.9 °F 5.0 °F 85% 29.90 in 4.0 mi NW 23.0 mph 31.1 mph N/A Snow Light Snow
5:55 AM 8.6 °F -11.9 °F 6.8 °F 92% 29.90 in 8.0 mi NW 23.0 mph 32.2 mph N/A   Mostly Cloudy
6:15 AM 8.6 °F -11.9 °F 8.6 °F 100% 29.92 in 3.0 mi NW 23.0 mph 32.2 mph N/A Snow Light Snow
6:35 AM 10.4 °F -8.2 °F 8.6 °F 92% 29.93 in 5.0 mi NW 19.6 mph 26.5 mph 0.01 in Snow Light Snow
6:55 AM 10.4 °F -9.9 °F 8.6 °F 92% 29.94 in 7.0 mi NW 24.2 mph 31.1 mph 0.02 in Snow Light Snow
7:15 AM 10.4 °F -7.7 °F 8.6 °F 92% 29.95 in 10.0 mi NW 18.4 mph 23.0 mph N/A Snow Light Snow
7:35 AM 8.6 °F -8.9 °F 5.0 °F 85% 29.96 in 10.0 mi NW 16.1 mph - N/A   Scattered Clouds
7:55 AM 8.6 °F -8.3 °F 5.0 °F 85% 29.97 in 10.0 mi NW 15.0 mph - N/A   Clear
8:15 AM 8.6 °F -8.3 °F 3.2 °F 79% 29.97 in 10.0 mi NW 15.0 mph - N/A   Clear
8:35 AM 10.4 °F -6.6 °F 3.2 °F 73% 29.98 in 10.0 mi NW 16.1 mph - N/A   Clear
8:55 AM 10.4 °F -6.0 °F 5.0 °F 79% 29.99 in 10.0 mi NW 15.0 mph - N/A   Clear
9:15 AM 10.4 °F -7.7 °F 5.0 °F 79% 29.99 in 10.0 mi NW 18.4 mph - N/A   Clear
9:35 AM 12.2 °F -4.3 °F 5.0 °F 73% 30.00 in 10.0 mi NNW 16.1 mph - N/A   Clear
9:55 AM 12.2 °F -3.1 °F 5.0 °F 73% 30.01 in 10.0 mi NNW 13.8 mph - N/A   Clear
10:15 AM 14.0 °F -3.0 °F -0.4 °F 53% 30.01 in 10.0 mi NW 18.4 mph - N/A   Clear
10:35 AM 14.0 °F -2.0 °F -0.4 °F 53% 30.02 in 10.0 mi NW 16.1 mph - N/A   Clear
10:55 AM 15.8 °F 0.9 °F 1.4 °F 53% 30.02 in 10.0 mi NNW 15.0 mph - N/A   Clear
11:15 AM 15.8 °F 2.1 °F 1.4 °F 53% 30.02 in 10.0 mi NNW 12.7 mph - N/A   Clear
11:35 AM 15.8 °F 2.1 °F 1.4 °F 53% 30.02 in 10.0 mi NW 12.7 mph - N/A   Clear
11:55 AM 17.6 °F 5.7 °F 1.4 °F 49% 30.02 in 10.0 mi NW 10.4 mph - N/A   Clear
12:15 PM 19.4 °F 8.6 °F 1.4 °F 46% 30.01 in 10.0 mi NW 9.2 mph - N/A   Clear
12:35 PM 19.4 °F 8.6 °F 5.0 °F 54% 30.01 in 10.0 mi NW 9.2 mph - N/A   Clear
12:55 PM 19.4 °F 9.5 °F 8.6 °F 63% 30.02 in 10.0 mi NW 8.1 mph - N/A   Clear
1:15 PM 19.4 °F 9.5 °F 6.8 °F 58% 30.02 in 10.0 mi WNW 8.1 mph - N/A   Clear
1:35 PM 17.6 °F 9.3 °F 8.6 °F 68% 30.02 in 10.0 mi WSW 5.8 mph - N/A   Clear
1:55 PM 19.4 °F 11.5 °F 5.0 °F 54% 30.02 in 10.0 mi WSW 5.8 mph 16.1 mph N/A   Clear
2:15 PM 19.4 °F 8.6 °F 8.6 °F 63% 30.02 in 10.0 mi WSW 9.2 mph - N/A   Clear
2:55 PM 14.0 °F 3.9 °F 6.8 °F 73% 30.02 in 10.0 mi SSW 6.9 mph - N/A   Clear
3:15 PM 14.0 °F 3.9 °F 8.6 °F 79% 30.03 in 10.0 mi SW 6.9 mph - N/A   Clear
3:35 PM 12.2 °F -1.0 °F 6.8 °F 79% 30.03 in 10.0 mi SSW 10.4 mph - N/A   Clear
3:55 PM 14.0 °F 1.2 °F 6.8 °F 73% 30.03 in 10.0 mi SSW 10.4 mph - N/A   Scattered Clouds
4:35 PM 14.0 °F 1.2 °F 6.8 °F 73% 30.04 in 10.0 mi SW 10.4 mph - N/A   Mostly Cloudy
4:55 PM 12.2 °F -1.0 °F 6.8 °F 79% 30.04 in 10.0 mi SW 10.4 mph - N/A   Partly Cloudy
5:15 PM 10.4 °F -3.3 °F 6.8 °F 85% 30.04 in 10.0 mi SW 10.4 mph - N/A   Mostly Cloudy
5:35 PM 10.4 °F -6.0 °F 5.0 °F 79% 30.04 in 10.0 mi WSW 15.0 mph - N/A   Overcast
5:55 PM 10.4 °F -4.8 °F 6.8 °F 85% 30.04 in 10.0 mi WSW 12.7 mph - N/A   Mostly Cloudy
6:15 PM 10.4 °F -5.4 °F 6.8 °F 85% 30.04 in 10.0 mi WSW 13.8 mph - N/A   Scattered Clouds
6:55 PM 10.4 °F -8.2 °F 6.8 °F 85% 30.04 in 10.0 mi WSW 19.6 mph - N/A   Clear
7:15 PM 12.2 °F -4.3 °F 8.6 °F 85% 30.03 in 10.0 mi WSW 16.1 mph - N/A   Clear
7:35 PM 12.2 °F -3.1 °F 8.6 °F 85% 30.03 in 10.0 mi WSW 13.8 mph - N/A   Clear
7:55 PM 12.2 °F -1.0 °F 8.6 °F 85% 30.03 in 10.0 mi WSW 10.4 mph - N/A   Clear
8:15 PM 12.2 °F 4.3 °F 8.6 °F 85% 30.04 in 10.0 mi South 4.6 mph - N/A   Clear
8:35 PM 12.2 °F - 8.6 °F 85% 30.03 in 10.0 mi Calm Calm - N/A   Clear
8:55 PM 12.2 °F -5.3 °F 10.4 °F 92% 30.03 in 10.0 mi WSW 18.4 mph 21.9 mph N/A   Clear
9:15 PM 14.0 °F -3.0 °F 10.4 °F 86% 30.03 in 10.0 mi WSW 18.4 mph - N/A   Clear
9:35 PM 14.0 °F -2.0 °F 10.4 °F 86% 30.03 in 10.0 mi WSW 16.1 mph - N/A   Clear
9:55 PM 12.2 °F -3.7 °F 8.6 °F 85% 30.03 in 10.0 mi WSW 15.0 mph - N/A   Clear
10:15 PM 12.2 °F -4.8 °F 8.6 °F 85% 30.04 in 10.0 mi WSW 17.3 mph - N/A   Clear
10:35 PM 12.2 °F -1.8 °F 8.6 °F 85% 30.04 in 10.0 mi WSW 11.5 mph - N/A   Clear
10:55 PM 14.0 °F -2.0 °F 8.6 °F 79% 30.04 in 10.0 mi WSW 16.1 mph - N/A   Clear
11:15 PM 14.0 °F -3.4 °F 8.6 °F 79% 30.04 in 10.0 mi WSW 19.6 mph - N/A   Clear
11:35 PM 12.2 °F -4.8 °F 8.6 °F 85% 30.04 in 10.0 mi WSW 17.3 mph - N/A   Clear
11:55 PM 14.0 °F -2.0 °F 8.6 °F 79% 30.04 in 10.0 mi WSW 16.1 mph - N/A   Clear